THORAD DELTA 1 DEB, 42621

Orbit data source: Space-Track

THORAD DELTA 1 DEB, 42621 is space debris in LEO originally from a launch on Fri, 15 Nov 1974 UTC launched from the Air Force Western Test Range (AFWTR). Debris objects in space refer to the collection of defunct objects orbiting the Earth. Examples of debris include non-operational satellites, rocket bodies, and fragments generated from explosions, collisions, or faulty payload assembly.

Loading next visibility...
Identifier
42621, 1974-089GN
Orbit
LEO
Country
Flag of USUS
Related business
Manufacturer
Unknown
Mission
Spacecraft
Bus & Motor
Unknown
Mass
Unknown
Launch date (UTC)
1974-11-15 (51 years ago)
Launch vehicle
Unknown
Launch site
Air Force Western Test Range (AFWTR)
Object type
Payload
Rocket body
Debris
Shape & HBR
Unknown shape, 0.1 m
Radar Cross Section
Small (<0.1 m²)

Expand to show TLE details & history
Last TLE update: 4 days ago

TLE from 4 days ago
0 THORAD DELTA 1 DEB
1 42621U 74089GN  26119.43515927  .00000050  00000-0  10362-2 0  9997
2 42621 101.0178 286.1901 0372067 335.2264  49.5164 11.85419317537994
Epoch: 2026-04-29T10:26Z
TLE epoch observation values (Epoch: 2026-04-29T10:26:37.760Z)
Latitude
27.56135°
Longitude
-93.66735°
Altitude
1,560.31 km
Speed
7.172 km/s
True Right ascension
18h 41m 32s
True Declination
27° 26' 05"
Sunlit
Object was in daylight at epoch
Visualization orbit readout
Latitude
Unknown
Longitude
Unknown
Altitude
Unknown
Speed
Unknown
Apparent Right ascension
Unknown
Apparent Declination
Unknown
Sunlit
N/A
Visualization observer readout
Local Sidereal Time
04:18:07
Azimuth
Unknown
Elevation
Unknown
Doppler factor
Unknown
Orbital elements
Apogee altitude
2,046.609 km
Perigee altitude
1,442.184 km
Semi-major axis
8,122.534 km
Eccentricity
0.03721
Inclination
101.0178°
RAAN
286.1901°
Arg. of periapsis
335.2264°
True anomaly
52.85817°
Mean anomaly
49.5164°
Eccentric anomaly
51.17725°
Mean motion
2.96487 °/min
Orbital period
121.42 mins
BSTAR
0.0010362
Loading maneuver chart data...
Computing Atmospheric mass density...

Documentation

Showing up to 5 results
|